Location: Poughquag
(41.6090°N, 73.6820°W)
Time: 07:33:44
(UTC-04:00)

S-56A Canister/Altair - Visible Passes

Search period start: 29 May 2020 00:00
Search period end: 08 June 2020 00:00
Orbit: 633 x 2499 km, 38.9° (Epoch: 28 May)

Date Brightness Start Highest point End Pass type
(mag) Time Alt. Az. Time Alt. Az. Time Alt. Az.
29 May 9.8 04:16:30 10° S 04:20:23 18° SE 04:25:12 10° E visible
30 May 9.8 03:45:08 10° SSE 03:47:55 14° SE 03:51:08 10° ESE visible
01 Jun 8.9 04:40:09 10° SW 04:45:09 38° SSE 04:52:11 10° E visible
02 Jun 8.9 04:08:45 14° SSW 04:12:37 31° SSE 04:18:44 10° E visible
03 Jun 8.9 03:37:42 18° S 03:40:07 26° SE 03:45:20 10° E visible
04 Jun 8.9 03:06:37 20° SSE 03:07:38 21° SE 03:11:57 10° E visible
05 Jun 9.2 02:35:32 16° SE 02:35:32 16° SE 02:38:32 10° ESE visible
05 Jun 8.1 04:33:00 10° WSW 04:37:57 55° SSE 04:44:56 10° E visible
06 Jun 9.7 02:04:26 11° ESE 02:04:26 11° ESE 02:04:57 10° ESE visible
06 Jun 8.0 04:01:51 18° SW 04:05:22 49° SSE 04:11:41 10° E visible
07 Jun 8.0 03:30:43 27° SSW 03:32:50 43° SSE 03:38:30 10° E visible
